Starlink 30530

operational
NORAD ID: 58005 Int'l Des: 2023-153 Owner: SPXS Country: US Constellation: starlink
LEOCIRCULAR

About Starlink 30530

Description loading...

Live Position

Loading 3D Globe...

Upcoming Passes

Altitude History

Altitude vs Time

uPlot chart will show altitude changes over time

Two-Line Element Set

1 58005U 23153Q 25303.02759637 .00001560 00000-0 13052-3 0 9990
2 58005 43.0035 58.5326 0001385 266.9730 93.0954 15.02543677115225
Epoch: Oct 30, 2025 • Age: 16 hours

Current Status

Altitude 562.2 km
Velocity 7.59 km/s
Sub-Earth Point 38.72°N, 120.04°W
Launch Date Oct 5, 2023
Age 2 years
Type internet

Technical Details

Classification Payload
Mass 730.00 kg
Dry Mass 700.00 kg
Total Mass 730.00 kg
Length 0.30 m
Diameter 4.10 m
Span 29.00 m
Shape Box + pan
Manufacturer SPXS
Bus Type Starlink V2M
Phase Status In Orbit
Owner/State SPXS/US

Large Constellations

Loading constellations...